TimeEDT,TemperatureF,Dew PointF,Humidity,Sea Level PressureIn,VisibilityMPH,Wind Direction,Wind SpeedMPH,Gust SpeedMPH,PrecipitationIn,Events,Conditions,WindDirDegrees,DateUTC
12:15 AM,74.5,68.5,82,29.94,10.0,SE,3.5,-,N/A,,Clear,140,2013-07-10 04:15:00
12:35 AM,74.5,68.0,80,29.94,10.0,SE,3.5,-,N/A,,Clear,130,2013-07-10 04:35:00
12:55 AM,74.5,68.2,81,29.94,10.0,ESE,4.6,-,N/A,,Clear,120,2013-07-10 04:55:00
1:15 AM,74.5,68.4,81,29.93,10.0,SE,5.8,-,N/A,,Clear,130,2013-07-10 05:15:00
1:35 AM,74.5,68.5,82,29.93,10.0,SE,5.8,-,N/A,,Clear,140,2013-07-10 05:35:00
1:55 AM,74.5,68.2,81,29.92,10.0,SE,5.8,-,N/A,,Clear,140,2013-07-10 05:55:00
2:15 AM,74.5,68.0,80,29.92,10.0,SE,3.5,-,N/A,,Clear,140,2013-07-10 06:15:00
2:35 AM,74.3,67.8,80,29.92,10.0,SE,4.6,-,N/A,,Clear,130,2013-07-10 06:35:00
2:55 AM,74.3,67.6,80,29.91,10.0,SE,5.8,-,N/A,,Clear,130,2013-07-10 06:55:00
3:15 AM,74.3,67.5,79,29.90,10.0,SE,6.9,-,N/A,,Clear,130,2013-07-10 07:15:00
3:35 AM,74.5,67.5,79,29.90,10.0,SE,4.6,-,N/A,,Clear,130,2013-07-10 07:35:00
3:55 AM,73.6,66.7,79,29.89,10.0,ESE,6.9,-,N/A,,Clear,120,2013-07-10 07:55:00
4:15 AM,73.2,66.4,79,29.89,10.0,SE,5.8,-,N/A,,Clear,130,2013-07-10 08:15:00
4:35 AM,72.0,65.8,81,29.89,10.0,SE,6.9,-,N/A,,Clear,130,2013-07-10 08:35:00
4:55 AM,72.0,66.2,82,29.88,10.0,SE,6.9,-,N/A,,Clear,130,2013-07-10 08:55:00
5:15 AM,72.0,66.2,82,29.88,10.0,SE,6.9,-,N/A,,Scattered Clouds,130,2013-07-10 09:15:00
5:35 AM,72.1,65.8,80,29.87,10.0,SE,6.9,-,N/A,,Scattered Clouds,130,2013-07-10 09:35:00
5:55 AM,72.0,66.2,82,29.87,10.0,SE,5.8,-,N/A,,Scattered Clouds,140,2013-07-10 09:55:00
6:15 AM,74.5,67.3,78,29.87,10.0,SSE,4.6,-,N/A,,Scattered Clouds,160,2013-07-10 10:15:00
6:35 AM,74.5,66.0,75,29.87,10.0,SSE,10.4,17.3,N/A,,Scattered Clouds,160,2013-07-10 10:35:00
6:55 AM,76.6,67.1,72,29.86,10.0,SSE,11.5,17.3,N/A,,Scattered Clouds,160,2013-07-10 10:55:00
7:15 AM,76.3,66.7,72,29.86,10.0,SSE,9.2,16.1,N/A,,Mostly Cloudy,160,2013-07-10 11:15:00
7:35 AM,77.0,67.3,72,29.86,10.0,SSE,9.2,-,N/A,,Overcast,150,2013-07-10 11:35:00
7:55 AM,77.0,66.7,70,29.85,10.0,SSE,10.4,-,N/A,,Overcast,160,2013-07-10 11:55:00
8:15 AM,77.0,65.8,68,29.84,10.0,South,10.4,19.6,N/A,,Mostly Cloudy,170,2013-07-10 12:15:00
8:35 AM,77.0,65.7,68,29.84,10.0,South,9.2,-,N/A,,Mostly Cloudy,180,2013-07-10 12:35:00
8:55 AM,77.0,65.8,68,29.84,10.0,South,9.2,-,N/A,,Mostly Cloudy,170,2013-07-10 12:55:00
9:15 AM,79.7,67.1,65,29.83,10.0,SSE,13.8,20.7,N/A,,Scattered Clouds,160,2013-07-10 13:15:00
9:35 AM,79.7,66.4,64,29.82,10.0,SSE,10.4,18.4,N/A,,Mostly Cloudy,160,2013-07-10 13:35:00
9:55 AM,79.7,67.3,66,29.82,0.8,South,11.5,20.7,N/A,,Haze,180,2013-07-10 13:55:00
10:15 AM,80.6,67.3,64,29.82,1.0,South,9.2,20.7,N/A,,Haze,170,2013-07-10 14:15:00
10:35 AM,80.8,66.9,63,29.81,1.0,South,13.8,21.9,N/A,,Haze,180,2013-07-10 14:35:00
10:55 AM,80.8,66.2,61,29.80,1.0,South,12.7,24.2,N/A,,Haze,180,2013-07-10 14:55:00
11:15 AM,82.2,66.7,59,29.80,0.8,South,11.5,19.6,N/A,,Haze,170,2013-07-10 15:15:00
11:35 AM,81.9,66.6,60,29.79,0.8,South,15.0,27.6,N/A,,Haze,170,2013-07-10 15:35:00
11:55 AM,82.9,67.1,59,29.79,0.5,South,12.7,18.4,N/A,,Haze,170,2013-07-10 15:55:00
12:15 PM,83.8,67.3,57,29.77,1.2,South,9.2,21.9,N/A,,Haze,190,2013-07-10 16:15:00
12:35 PM,84.2,67.1,56,29.77,1.2,South,13.8,24.2,N/A,,Haze,180,2013-07-10 16:35:00
12:55 PM,86.4,68.7,55,29.76,1.2,South,9.2,18.4,N/A,,Haze,190,2013-07-10 16:55:00
1:15 PM,83.1,67.3,59,29.76,5.0,South,11.5,17.3,N/A,,Haze,190,2013-07-10 17:15:00
1:35 PM,79.9,68.0,67,29.76,5.0,SSW,5.8,-,N/A,Rain,Light Rain,200,2013-07-10 17:35:00
1:55 PM,79.7,70.2,73,29.77,5.0,SSW,5.8,-,N/A,Rain,Rain,200,2013-07-10 17:55:00
2:15 PM,79.7,69.1,70,29.75,5.0,South,10.4,19.6,N/A,Rain,Light Rain,180,2013-07-10 18:15:00
2:35 PM,80.8,69.6,69,29.74,7.0,South,10.4,16.1,N/A,,Scattered Clouds,190,2013-07-10 18:35:00
2:55 PM,82.0,69.4,65,29.73,7.0,South,13.8,20.7,N/A,,Mostly Cloudy,180,2013-07-10 18:55:00
3:15 PM,83.1,69.1,62,29.71,7.0,South,12.7,21.9,N/A,,Scattered Clouds,180,2013-07-10 19:15:00
3:35 PM,82.0,68.9,64,29.71,10.0,South,8.1,18.4,N/A,,Mostly Cloudy,180,2013-07-10 19:35:00
3:55 PM,82.9,68.9,62,29.71,7.0,South,8.1,19.6,N/A,,Scattered Clouds,180,2013-07-10 19:55:00
4:15 PM,86.5,70.2,58,29.71,10.0,South,12.7,21.9,N/A,,Mostly Cloudy,190,2013-07-10 20:15:00
4:35 PM,83.1,68.2,61,29.70,10.0,South,10.4,16.1,N/A,,Overcast,190,2013-07-10 20:35:00
4:55 PM,84.2,68.4,59,29.69,10.0,South,11.5,18.4,N/A,,Scattered Clouds,180,2013-07-10 20:55:00
5:15 PM,84.6,68.0,57,29.69,10.0,South,11.5,21.9,N/A,,Clear,170,2013-07-10 21:15:00
5:35 PM,81.5,68.2,64,29.68,10.0,South,9.2,21.9,N/A,,Scattered Clouds,180,2013-07-10 21:35:00
5:55 PM,81.3,68.5,65,29.68,10.0,South,10.4,16.1,N/A,,Scattered Clouds,180,2013-07-10 21:55:00
6:15 PM,82.8,68.7,62,29.67,10.0,South,9.2,18.4,N/A,,Scattered Clouds,180,2013-07-10 22:15:00
6:35 PM,82.2,68.2,62,29.68,10.0,South,8.1,19.6,N/A,,Clear,190,2013-07-10 22:35:00
6:55 PM,82.0,68.9,64,29.68,10.0,South,12.7,17.3,N/A,,Scattered Clouds,180,2013-07-10 22:55:00
7:15 PM,82.0,69.3,65,29.69,10.0,SSW,8.1,-,N/A,,Scattered Clouds,200,2013-07-10 23:15:00
7:35 PM,81.0,69.1,67,29.68,10.0,South,6.9,-,N/A,,Scattered Clouds,170,2013-07-10 23:35:00
7:55 PM,80.6,69.4,69,29.68,10.0,South,6.9,-,N/A,,Clear,170,2013-07-10 23:55:00
8:15 PM,79.7,69.4,71,29.67,10.0,South,8.1,16.1,N/A,,Clear,170,2013-07-11 00:15:00
8:35 PM,79.7,70.2,73,29.68,10.0,South,9.2,-,N/A,,Clear,190,2013-07-11 00:35:00
8:55 PM,79.7,70.7,74,29.68,10.0,South,9.2,-,N/A,,Clear,170,2013-07-11 00:55:00
9:15 PM,79.5,70.9,75,29.69,10.0,South,6.9,16.1,N/A,,Clear,180,2013-07-11 01:15:00
9:35 PM,77.5,69.8,77,29.70,10.0,South,6.9,-,N/A,,Clear,180,2013-07-11 01:35:00
9:55 PM,77.4,69.8,77,29.71,10.0,South,6.9,-,N/A,,Clear,180,2013-07-11 01:55:00
10:15 PM,77.0,69.4,77,29.71,10.0,SSW,6.9,-,N/A,,Clear,210,2013-07-11 02:15:00
10:35 PM,77.0,70.0,79,29.71,10.0,SSW,4.6,-,N/A,,Mostly Cloudy,200,2013-07-11 02:35:00
10:55 PM,77.0,70.7,81,29.73,2.5,SW,6.9,21.9,N/A,Rain,Heavy Rain,220,2013-07-11 02:55:00
11:15 PM,74.5,70.2,86,29.72,7.0,WSW,3.5,-,N/A,Rain,Rain,240,2013-07-11 03:15:00
11:35 PM,74.5,69.8,85,29.72,10.0,SW,3.5,-,N/A,Rain,Light Rain,220,2013-07-11 03:35:00
11:55 PM,74.5,70.7,88,29.71,7.0,SSE,4.6,-,N/A,,Mostly Cloudy,160,2013-07-11 03:55:00